CW5983 Weather Reports


time (UTC)temp
F
wind
direction
speed
knots
gust
knots
rain 1hr
in
rain 24hr
in
rain mn
in
humidity
%
barometer
mb
20220811232009 97 324 10.4 13.9 0.00 0.00 0.00 42 996.5
20220811231801 96 328 7.0 13.9 0.00 0.00 0.00 41 996.5
20220811231601 97 339 8.7 13.0 0.00 0.00 0.00 41 996.5
20220811231506 97 360 7.8 13.0 0.00 0.00 0.00 43 996.5
20220811231401 97 326 7.8 13.0 0.00 0.00 0.00 42 996.5
20220811231304 97 333 7.8 13.0 0.00 0.00 0.00 42 996.5
20220811230701 97 11 7.0 12.2 0.00 0.00 0.00 42 996.4
20220811230604 97 324 5.2 14.8 0.00 0.00 0.00 42 996.4
20220811230301 97 5 7.0 14.8 0.00 0.00 0.00 44 996.3
20220811230204 97 340 4.3 14.8 0.00 0.00 0.00 43 996.3
20220811230101 97 337 7.0 14.8 0.00 0.00 0.00 43 996.3
20220811225701 97 341 5.2 12.2 0.00 0.00 0.00 42 996.2
20220811225401 97 334 7.8 13.0 0.00 0.00 0.00 42 996.2
20220811225304 97 327 9.6 13.9 0.00 0.00 0.00 43 996.2
20220811225201 97 313 7.0 13.9 0.00 0.00 0.00 44 996.3
20220811224901 97 348 7.8 13.9 0.00 0.00 0.00 42 996.2
20220811224800 97 319 9.6 13.9 0.00 0.00 0.00 41 996.3
20220811224703 97 349 7.8 13.9 0.00 0.00 0.00 42 996.4
20220811224502 97 322 10.4 13.9 0.00 0.00 0.00 40 996.3
20220811224303 97 338 8.7 13.9 0.00 0.00 0.00 41 996.4
20220811224201 98 326 7.8 13.9 0.00 0.00 0.00 42 996.3
20220811223801 98 321 7.8 13.9 0.00 0.00 0.00 39 996.3
20220811223601 98 290 10.4 13.9 0.00 0.00 0.00 40 996.3
20220811223505 98 348 5.2 13.9 0.00 0.00 0.00 40 996.3
20220811223401 98 327 5.2 16.5 0.00 0.00 0.00 42 996.4
20220811223303 98 314 10.4 16.5 0.00 0.00 0.00 42 996.3
20220811223206 98 319 11.3 16.5 0.00 0.00 0.00 41 996.4
20220811223003 98 309 7.8 16.5 0.00 0.00 0.00 41 996.3
20220811222901 98 330 7.0 16.5 0.00 0.00 0.00 40 996.3
20220811222501 98 306 8.7 14.8 0.00 0.00 0.00 39 996.3
20220811222201 99 323 8.7 15.6 0.00 0.00 0.00 39 996.3
20220811222101 99 321 7.0 15.6 0.00 0.00 0.00 37 996.3
20220811221901 99 315 5.2 15.6 0.00 0.00 0.00 38 996.2
20220811221603 99 335 9.6 15.6 0.00 0.00 0.00 37 996.3
20220811221502 99 324 9.6 15.6 0.00 0.00 0.00 38 996.2
20220811221203 99 306 8.7 20.9 0.00 0.00 0.00 37 996.3
20220811220901 99 333 5.2 20.9 0.00 0.00 0.00 38 996.2
20220811220601 99 314 13.0 20.9 0.00 0.00 0.00 35 996.2
20220811220404 99 297 12.2 20.9 0.00 0.00 0.00 36 996.3
20220811220201 99 272 7.0 14.8 0.00 0.00 0.00 37 996.1
20220811215803 99 325 9.6 14.8 0.00 0.00 0.00 39 996.2
20220811215505 99 302 12.2 14.8 0.00 0.00 0.00 38 996.2
20220811215403 99 321 7.8 14.8 0.00 0.00 0.00 38 996.1
20220811215305 99 331 7.8 14.8 0.00 0.00 0.00 37 996.1
20220811215206 99 322 8.7 14.8 0.00 0.00 0.00 38 996.1
20220811215103 99 327 10.4 14.8 0.00 0.00 0.00 39 996.1
20220811214904 99 318 7.8 13.9 0.00 0.00 0.00 41 996.2
20220811214602 99 328 7.8 13.0 0.00 0.00 0.00 42 996.2
20220811214405 99 327 5.2 13.0 0.00 0.00 0.00 42 996.4
20220811214303 99 324 7.0 13.0 0.00 0.00 0.00 41 996.3
20220811214203 99 340 5.2 13.0 0.00 0.00 0.00 42 996.4
20220811214008 99 326 7.8 13.0 0.00 0.00 0.00 41 996.4
20220811213606 99 351 8.7 13.0 0.00 0.00 0.00 40 996.5
20220811213303 99 304 4.3 10.4 0.00 0.00 0.00 42 996.4
20220811213103 99 299 9.6 10.4 0.00 0.00 0.00 44 996.5
20220811213007 99 308 6.1 10.4 0.00 0.00 0.00 44 996.4
20220811212903 99 319 7.0 9.6 0.00 0.00 0.00 44 996.5
20220811212703 99 333 7.8 9.6 0.00 0.00 0.00 45 996.5
20220811212305 99 327 5.2 9.6 0.00 0.00 0.00 48 996.4
20220811212203 99 329 7.0 9.6 0.00 0.00 0.00 48 996.4
20220811211903 99 318 5.2 9.6 0.00 0.00 0.00 50 996.5
20220811211802 99 311 5.2 9.6 0.00 0.00 0.00 50 996.5
20220811211402 99 330 8.7 9.6 0.00 0.00 0.00 50 996.6
20220811211204 99 340 4.3 9.6 0.00 0.00 0.00 50 996.6
20220811211005 99 323 4.3 8.7 0.00 0.00 0.00 50 996.6
20220811210906 99 338 4.3 8.7 0.00 0.00 0.00 50 996.5
20220811210803 99 317 4.3 8.7 0.00 0.00 0.00 50 996.5
20220811210703 99 313 3.5 8.7 0.00 0.00 0.00 51 996.6
20220811210607 99 330 5.2 8.7 0.00 0.00 0.00 51 996.6
20220811210403 99 346 4.3 8.7 0.00 0.00 0.00 50 996.6
20220811210206 100 324 7.0 8.7 0.00 0.00 0.00 50 996.7
20220811210103 100 324 7.0 8.7 0.00 0.00 0.00 50 996.7
20220811210009 100 324 7.0 8.7 0.00 0.00 0.00 50 996.7
20220811205803 100 309 4.3 9.6 0.00 0.00 0.00 50 996.7
20220811205506 100 319 2.6 9.6 0.00 0.00 0.00 48 996.7
20220811205305 99 331 4.3 9.6 0.00 0.00 0.00 47 996.8
20220811205203 99 338 3.5 9.6 0.00 0.00 0.00 47 996.8
20220811205105 99 322 7.8 9.6 0.00 0.00 0.00 47 996.8
20220811205005 99 330 7.8 8.7 0.00 0.00 0.00 49 996.8
20220811204903 99 336 3.5 7.8 0.00 0.00 0.00 48 996.8
20220811204706 99 341 3.5 8.7 0.00 0.00 0.00 51 996.9
20220811204603 99 333 5.2 8.7 0.00 0.00 0.00 52 996.8
20220811204403 99 328 3.5 8.7 0.00 0.00 0.00 51 996.8
20220811204203 99 319 3.5 8.7 0.00 0.00 0.00 51 996.8
20220811203803 100 315 5.2 7.8 0.00 0.00 0.00 50 996.7
20220811203704 100 327 4.3 8.7 0.00 0.00 0.00 50 996.7
20220811203603 100 323 5.2 8.7 0.00 0.00 0.00 50 996.7
20220811203506 100 344 4.3 8.7 0.00 0.00 0.00 50 996.8
20220811203404 100 323 5.2 8.7 0.00 0.00 0.00 50 996.8
20220811203303 100 348 7.0 8.7 0.00 0.00 0.00 51 996.8
20220811202903 100 344 7.0 8.7 0.00 0.00 0.00 49 996.9
20220811202604 100 349 3.5 10.4 0.00 0.00 0.00 50 996.9
20220811202503 100 318 7.0 10.4 0.00 0.00 0.00 50 996.9
20220811202403 100 326 5.2 10.4 0.00 0.00 0.00 50 996.9
20220811202203 100 346 5.2 10.4 0.00 0.00 0.00 49 996.9
20220811202010 100 5 5.2 10.4 0.00 0.00 0.00 47 997.0
20220811201903 100 342 3.5 10.4 0.00 0.00 0.00 46 996.9
20220811201706 100 338 4.3 9.6 0.00 0.00 0.00 46 997.0
20220811201603 100 328 8.7 9.6 0.00 0.00 0.00 47 997.1
20220811201402 100 350 7.8 9.6 0.00 0.00 0.00 45 997.1
20220811201007 101 320 7.0 9.6 0.00 0.00 0.00 47 997.3
20220811200703 101 360 3.5 9.6 0.00 0.00 0.00 45 997.1
20220811200605 101 331 4.3 9.6 0.00 0.00 0.00 46 997.2
20220811200206 101 346 5.2 9.6 0.00 0.00 0.00 46 997.2
20220811200103 101 344 8.7 9.6 0.00 0.00 0.00 46 997.3
20220811200008 101 321 5.2 9.6 0.00 0.00 0.00 46 997.3
20220811195906 101 344 8.7 9.6 0.00 0.00 0.00 46 997.2
20220811195506 101 346 4.3 9.6 0.00 0.00 0.00 44 997.3
20220811195203 101 5 3.5 9.6 0.00 0.00 0.00 48 997.3
20220811195106 101 342 5.2 10.4 0.00 0.00 0.00 48 997.3
20220811195005 102 333 3.5 10.4 0.00 0.00 0.00 47 997.3
20220811194903 102 350 4.3 10.4 0.00 0.00 0.00 46 997.4
20220811194803 102 355 4.3 10.4 0.00 0.00 0.00 45 997.4
20220811194603 102 342 5.2 10.4 0.00 0.00 0.00 43 997.3
20220811194504 102 338 5.2 10.4 0.00 0.00 0.00 42 997.3
20220811194203 102 350 8.7 12.2 0.00 0.00 0.00 39 997.3
20220811194103 102 319 5.2 12.2 0.00 0.00 0.00 42 997.3
20220811194009 102 346 4.3 12.2 0.00 0.00 0.00 43 997.4
20220811193903 102 16 4.3 12.2 0.00 0.00 0.00 42 997.3
20220811193803 102 9 6.1 12.2 0.00 0.00 0.00 42 997.4
20220811193703 102 355 4.3 12.2 0.00 0.00 0.00 41 997.4
20220811193606 102 337 8.7 12.2 0.00 0.00 0.00 39 997.3
20220811193403 101 355 5.2 12.2 0.00 0.00 0.00 42 997.4
20220811193005 100 355 5.2 7.8 0.00 0.00 0.00 47 997.4
20220811192905 100 342 5.2 7.8 0.00 0.00 0.00 48 997.3
20220811192703 100 5 2.6 7.8 0.00 0.00 0.00 49 997.4
20220811192304 100 346 7.0 7.8 0.00 0.00 0.00 51 997.3
20220811192207 100 355 7.0 7.0 0.00 0.00 0.00 52 997.3
20220811192103 100 5 5.2 7.0 0.00 0.00 0.00 51 997.3
20220811191905 100 15 4.3 7.0 0.00 0.00 0.00 51 997.3
20220811191803 100 12 3.5 7.0 0.00 0.00 0.00 52 997.4
20220811191704 100 355 5.2 7.0 0.00 0.00 0.00 51 997.3
20220811191603 101 345 5.2 7.8 0.00 0.00 0.00 51 997.4
20220811191202 101 360 4.3 7.8 0.00 0.00 0.00 50 997.3
20220811191105 101 355 4.3 8.7 0.00 0.00 0.00 48 997.3
20220811191005 101 5 4.3 8.7 0.00 0.00 0.00 47 997.3
20220811190305 101 360 5.2 9.6 0.00 0.00 0.00 44 997.3
20220811190203 101 355 7.0 9.6 0.00 0.00 0.00 45 997.2
20220811190011 101 10 7.0 9.6 0.00 0.00 0.00 44 997.2
20220811185802 101 343 7.8 9.6 0.00 0.00 0.00 46 997.2
20220811185707 101 344 5.2 9.6 0.00 0.00 0.00 46 997.1
20220811185603 101 5 4.3 9.6 0.00 0.00 0.00 48 997.2
20220811185403 100 346 5.2 9.6 0.00 0.00 0.00 48 997.2
20220811185306 100 355 7.0 9.6 0.00 0.00 0.00 48 997.2
20220811185103 100 338 7.0 9.6 0.00 0.00 0.00 48 997.2
20220811185005 100 355 8.7 9.6 0.00 0.00 0.00 49 997.1
20220811184703 100 336 5.2 7.8 0.00 0.00 0.00 55 997.1
20220811184603 100 342 5.2 7.8 0.00 0.00 0.00 56 997.1
20220811184406 100 333 4.3 7.8 0.00 0.00 0.00 55 997.1
20220811184103 100 331 3.5 7.8 0.00 0.00 0.00 55 997.0
20220811184008 100 325 5.2 7.8 0.00 0.00 0.00 55 997.1
20220811183904 100 323 5.2 7.8 0.00 0.00 0.00 55 997.1
20220811183803 100 331 4.3 7.8 0.00 0.00 0.00 55 997.1
20220811183403 100 323 4.3 7.8 0.00 0.00 0.00 53 997.1
20220811183205 101 336 5.2 8.7 0.00 0.00 0.00 52 997.1
20220811183104 101 323 3.5 8.7 0.00 0.00 0.00 52 997.1
20220811183006 101 311 5.2 8.7 0.00 0.00 0.00 52 997.0
20220811182902 101 311 4.3 8.7 0.00 0.00 0.00 51 997.0
20220811182806 101 323 5.2 8.7 0.00 0.00 0.00 51 997.0
20220811182703 101 331 5.2 8.7 0.00 0.00 0.00 50 997.1
20220811182603 101 325 3.5 8.7 0.00 0.00 0.00 49 997.0
20220811182203 101 309 6.1 7.8 0.00 0.00 0.00 49 997.0
20220811182103 101 304 4.3 7.8 0.00 0.00 0.00 50 997.0
20220811182008 101 317 5.2 7.8 0.00 0.00 0.00 50 997.0
20220811181707 101 324 3.5 8.7 0.00 0.00 0.00 49 996.9
20220811181603 102 318 4.3 8.7 0.00 0.00 0.00 49 996.7
20220811181504 102 325 4.3 8.7 0.00 0.00 0.00 48 996.8
20220811181304 102 334 4.3 8.7 0.00 0.00 0.00 48 996.7
20220811180904 102 334 7.8 8.7 0.00 0.00 0.00 45 996.6
20220811180803 102 323 3.5 8.7 0.00 0.00 0.00 45 996.6
20220811180504 102 323 3.5 9.6 0.00 0.00 0.00 44 996.4
20220811180403 102 319 5.2 9.6 0.00 0.00 0.00 45 996.5
20220811180302 103 319 5.2 9.6 0.00 0.00 0.00 45 996.4
20220811180206 103 321 4.3 9.6 0.00 0.00 0.00 46 996.4
20220811180008 103 313 4.3 9.6 0.00 0.00 0.00 45 996.4
20220811175905 103 344 3.5 9.6 0.00 0.00 0.00 44 996.4
20220811175603 104 310 7.8 8.7 0.00 0.00 0.00 43 996.4
20220811175102 104 331 7.0 8.7 0.00 0.00 0.00 38 996.2
20220811175007 104 317 5.2 8.7 0.00 0.00 0.00 38 996.2
20220811174903 104 343 5.2 8.7 0.00 0.00 0.00 37 996.2
20220811174702 104 320 7.8 8.7 0.00 0.00 0.00 36 996.1
20220811174605 104 320 5.2 8.7 0.00 0.00 0.00 36 996.1
20220811174403 104 318 5.2 8.7 0.00 0.00 0.00 36 996.1
20220811174302 104 312 4.3 8.7 0.00 0.00 0.00 36 996.1
20220811174103 104 304 6.1 8.7 0.00 0.00 0.00 36 996.0
20220811173704 105 314 2.6 8.7 0.00 0.00 0.00 37 996.0
20220811173406 105 330 3.5 8.7 0.00 0.00 0.00 37 995.9
20220811173303 105 311 4.3 8.7 0.00 0.00 0.00 36 995.9
20220811173203 105 321 5.2 8.7 0.00 0.00 0.00 36 995.9
20220811173009 105 329 4.3 7.8 0.00 0.00 0.00 35 995.8
20220811172904 105 320 5.2 7.8 0.00 0.00 0.00 35 995.7
20220811172607 105 320 7.0 7.8 0.00 0.00 0.00 35 995.7
20220811172504 105 326 2.6 7.8 0.00 0.00 0.00 35 995.7
20220811172306 105 311 5.2 7.8 0.00 0.00 0.00 35 995.7
20220811172203 105 329 4.3 7.0 0.00 0.00 0.00 35 995.7
20220811172103 105 333 5.2 7.0 0.00 0.00 0.00 35 995.7
20220811172006 105 311 5.2 7.0 0.00 0.00 0.00 34 995.7
20220811171905 105 334 3.5 7.0 0.00 0.00 0.00 35 995.6
20220811171803 105 309 4.3 7.0 0.00 0.00 0.00 35 995.6
20220811171703 105 312 3.5 7.0 0.00 0.00 0.00 35 995.5
20220811171603 105 325 5.2 7.0 0.00 0.00 0.00 35 995.5
20220811171506 105 320 4.3 7.0 0.00 0.00 0.00 35 995.5
20220811171304 105 329 2.6 7.0 0.00 0.00 0.00 37 995.5
20220811170803 105 323 4.3 5.2 0.00 0.00 0.00 36 995.4
20220811170403 105 355 3.5 5.2 0.00 0.00 0.00 35 995.3
20220811170102 106 343 2.6 4.3 0.00 0.00 0.00 32 995.2
20220811165906 105 321 1.7 4.3 0.00 0.00 0.00 31 995.1
20220811165803 105 319 2.6 4.3 0.00 0.00 0.00 31 995.1
20220811165703 105 318 4.3 4.3 0.00 0.00 0.00 32 995.1
20220811165506 105 306 1.7 7.0 0.00 0.00 0.00 32 995.1
20220811165106 104 321 2.6 8.7 0.00 0.00 0.00 32 995.1
20220811164903 104 316 2.6 8.7 0.00 0.00 0.00 33 995.0
20220811164804 104 316 3.5 8.7 0.00 0.00 0.00 33 995.0
20220811164705 104 294 2.6 8.7 0.00 0.00 0.00 34 995.0
20220811164603 104 296 4.3 8.7 0.00 0.00 0.00 35 995.1
20220811164203 104 40 1.7 3.5 0.00 0.00 0.00 35 994.8
20220811164006 104 40 1.7 3.5 0.00 0.00 0.00 36 994.8
20220811163603 104 40 2.6 2.6 0.00 0.00 0.00 35 994.7
20220811163505 104 41 1.7 2.6 0.00 0.00 0.00 35 994.7
20220811163305 104 41 1.7 2.6 0.00 0.00 0.00 35 994.6
20220811163007 104 41 2.6 2.6 0.00 0.00 0.00 35 994.6
20220811162803 104 41 1.7 3.5 0.00 0.00 0.00 35 994.5
20220811162602 104 41 1.7 3.5 0.00 0.00 0.00 37 994.5
20220811162506 104 41 0.9 3.5 0.00 0.00 0.00 37 994.5
20220811162404 104 41 0.9 3.5 0.00 0.00 0.00 36 994.6
20220811162305 104 41 1.7 3.5 0.00 0.00 0.00 36 994.5
20220811162005 103 41 2.6 2.6 0.00 0.00 0.00 37 994.4
20220811161903 103 42 1.7 2.6 0.00 0.00 0.00 37 994.4
20220811161803 103 42 2.6 2.6 0.00 0.00 0.00 37 994.4
20220811161705 103 42 1.7 2.6 0.00 0.00 0.00 38 994.4
20220811160905 103 42 1.7 2.6 0.00 0.00 0.00 39 994.4
20220811160804 104 42 1.7 1.7 0.00 0.00 0.00 39 994.3
20220811160507 104 42 0.9 1.7 0.00 0.00 0.00 39 994.3
20220811160010 104 42 0.0 2.6 0.00 0.00 0.00 39 994.3
20220811155702 103 42 0.9 2.6 0.00 0.00 0.00 39 994.2
20220811155606 104 42 0.9 2.6 0.00 0.00 0.00 39 994.2
20220811155504 104 42 0.9 2.6 0.00 0.00 0.00 38 994.2
20220811155402 103 42 0.9 2.6 0.00 0.00 0.00 38 994.3
20220811155310 104 42 1.7 2.6 0.00 0.00 0.00 39 994.2
20220811155203 104 42 0.9 2.6 0.00 0.00 0.00 39 994.2
20220811155103 104 42 0.9 2.6 0.00 0.00 0.00 39 994.2
20220811154603 104 43 1.7 2.6 0.00 0.00 0.00 41 994.1
20220811154303 104 44 1.7 2.6 0.00 0.00 0.00 39 994.0
20220811154105 104 44 1.7 2.6 0.00 0.00 0.00 38 994.0
20220811153904 104 44 0.9 2.6 0.00 0.00 0.00 39 994.1
20220811153802 104 44 0.9 2.6 0.00 0.00 0.00 39 994.0
20220811153707 104 44 0.9 2.6 0.00 0.00 0.00 38 994.1
20220811153602 105 44 1.7 2.6 0.00 0.00 0.00 37 994.1
20220811153504 105 44 1.7 2.6 0.00 0.00 0.00 36 994.0
20220811153008 105 44 1.7 2.6 0.00 0.00 0.00 37 993.9
20220811152703 105 44 0.9 2.6 0.00 0.00 0.00 38 994.0
20220811152305 105 45 2.6 2.6 0.00 0.00 0.00 40 993.9
20220811152005 106 46 2.6 2.6 0.00 0.00 0.00 40 993.9
20220811151505 106 46 0.9 4.3 0.00 0.00 0.00 38 993.8
20220811151402 106 47 1.7 4.3 0.00 0.00 0.00 38 993.8
20220811151008 106 50 3.5 4.3 0.00 0.00 0.00 33 993.7
20220811150803 106 55 1.7 3.5 0.00 0.00 0.00 34 993.7
20220811150703 106 55 1.7 3.5 0.00 0.00 0.00 34 993.7
20220811150605 106 55 1.7 3.5 0.00 0.00 0.00 35 993.8
20220811150504 106 57 0.0 3.5 0.00 0.00 0.00 32 993.7
20220811150008 106 36 1.7 3.5 0.00 0.00 0.00 37 993.7
20220811145803 106 30 0.9 3.5 0.00 0.00 0.00 39 993.6
20220811145703 106 30 0.9 3.5 0.00 0.00 0.00 39 993.7
20220811145603 106 30 0.9 3.5 0.00 0.00 0.00 39 993.7
20220811145506 106 30 0.9 3.5 0.00 0.00 0.00 38 993.7
20220811145402 106 30 0.0 3.5 0.00 0.00 0.00 36 993.7
20220811145203 106 28 2.6 3.5 0.00 0.00 0.00 37 993.7
20220811145105 106 25 0.9 3.5 0.00 0.00 0.00 38 993.7
20220811145005 106 27 1.7 3.5 0.00 0.00 0.00 35 993.7
20220811144802 107 28 1.7 3.5 0.00 0.00 0.00 38 993.7
20220811144603 107 27 2.6 3.5 0.00 0.00 0.00 36 993.7
20220811144506 107 29 2.6 3.5 0.00 0.00 0.00 35 993.7
20220811144204 107 28 1.7 3.5 0.00 0.00 0.00 37 993.7
20220811144005 107 26 2.6 3.5 0.00 0.00 0.00 36 993.7
20220811143702 108 28 1.7 3.5 0.00 0.00 0.00 37 993.5
20220811143503 108 31 2.6 3.5 0.00 0.00 0.00 34 993.6
20220811143305 108 36 1.7 4.3 0.00 0.00 0.00 33 993.5
20220811143008 107 38 2.6 4.3 0.00 0.00 0.00 32 993.5
20220811142602 107 38 0.9 4.3 0.00 0.00 0.00 33 993.6
20220811142504 107 33 2.6 4.3 0.00 0.00 0.00 34 993.5
20220811142403 107 31 2.6 4.3 0.00 0.00 0.00 35 993.5
20220811142203 107 33 3.5 4.3 0.00 0.00 0.00 37 993.5
20220811142102 107 33 0.9 4.3 0.00 0.00 0.00 37 993.5
20220811141705 108 33 2.6 4.3 0.00 0.00 0.00 37 993.6
20220811141403 108 37 3.5 3.5 0.00 0.00 0.00 33 993.5
20220811141303 108 38 2.6 5.2 0.00 0.00 0.00 33 993.5
20220811141203 108 42 0.9 5.2 0.00 0.00 0.00 36 993.5
20220811141111 109 42 0.9 5.2 0.00 0.00 0.00 36 993.4
20220811141007 109 42 0.9 5.2 0.00 0.00 0.00 36 993.5
20220811140603 109 59 1.7 5.2 0.00 0.00 0.00 29 993.5
20220811140506 109 64 5.2 5.2 0.00 0.00 0.00 29 993.4
20220811140406 109 44 2.6 4.3 0.00 0.00 0.00 30 993.5
20220811140303 109 47 3.5 4.3 0.00 0.00 0.00 29 993.5
20220811140203 109 53 1.7 4.3 0.00 0.00 0.00 29 993.5
20220811140103 109 57 3.5 3.5 0.00 0.00 0.00 30 993.5
20220811140009 109 58 1.7 3.5 0.00 0.00 0.00 30 993.4
20220811135805 108 54 1.7 3.5 0.00 0.00 0.00 31 993.4
20220811135504 108 49 0.0 2.6 0.00 0.00 0.00 36 993.5
20220811135403 108 49 0.9 2.6 0.00 0.00 0.00 38 993.5
20220811135305 108 49 0.0 2.6 0.00 0.00 0.00 36 993.5
20220811134602 108 47 1.7 3.5 0.00 0.00 0.00 40 993.6
20220811134507 108 46 1.7 3.5 0.00 0.00 0.00 40 993.5
20220811134402 109 45 0.9 3.5 0.00 0.00 0.00 40 993.4
20220811134305 109 45 2.6 3.5 0.00 0.00 0.00 40 993.5
20220811133705 111 40 0.9 4.3 0.00 0.00 0.00 33 993.5
20220811132603 110 51 2.6 7.8 0.00 0.00 0.00 26 993.5
20220811132403 110 15 6.1 8.7 0.00 0.00 0.00 26 993.6
20220811132204 110 47 4.3 8.7 0.00 0.00 0.00 26 993.5
20220811132005 110 44 4.3 8.7 0.00 0.00 0.00 26 993.5
20220811131505 110 55 4.3 9.6 0.00 0.00 0.00 26 993.5
20220811131310 109 49 4.3 9.6 0.00 0.00 0.00 27 993.5
20220811131107 109 59 5.2 9.6 0.00 0.00 0.00 27 993.6
20220811131003 109 67 5.2 9.6 0.00 0.00 0.00 27 993.5
20220811130911 109 46 6.1 9.6 0.00 0.00 0.00 28 993.6
20220811130506 108 66 7.8 9.6 0.00 0.00 0.00 31 993.6
20220811130404 108 72 4.3 8.7 0.00 0.00 0.00 30 993.6
20220811130305 108 55 2.6 8.7 0.00 0.00 0.00 31 993.6
20220811130202 108 62 3.5 8.7 0.00 0.00 0.00 31 993.6
20220811130009 107 48 5.2 8.7 0.00 0.00 0.00 32 993.6
20220811125804 108 67 5.2 8.7 0.00 0.00 0.00 31 993.6
20220811125601 108 51 3.5 8.7 0.00 0.00 0.00 31 993.6
20220811125505 108 48 4.3 8.7 0.00 0.00 0.00 32 993.7
20220811125402 108 64 1.7 8.7 0.00 0.00 0.00 32 993.6
20220811125203 108 50 4.3 8.7 0.00 0.00 0.00 31 993.7
20220811124903 108 55 1.7 8.7 0.00 0.00 0.00 31 993.7
20220811124804 108 29 5.2 8.7 0.00 0.00 0.00 30 993.7
20220811124702 108 51 3.5 8.7 0.00 0.00 0.00 31 993.7
20220811124607 108 25 3.5 8.7 0.00 0.00 0.00 31 993.6
20220811124401 108 44 1.7 8.7 0.00 0.00 0.00 31 993.7
20220811124006 108 36 4.3 8.7 0.00 0.00 0.00 31 993.7
20220811123908 107 57 4.3 8.7 0.00 0.00 0.00 31 993.7
20220811123804 107 61 2.6 8.7 0.00 0.00 0.00 32 993.8
20220811123608 107 51 4.3 8.7 0.00 0.00 0.00 32 993.8
20220811123505 107 52 5.2 8.7 0.00 0.00 0.00 31 993.8
20220811123413 107 65 3.5 7.8 0.00 0.00 0.00 34 993.8
20220811123102 107 56 5.2 7.8 0.00 0.00 0.00 34 993.8
20220811123002 107 38 2.6 7.8 0.00 0.00 0.00 35 993.9
20220811122803 107 49 6.1 8.7 0.00 0.00 0.00 35 993.9
20220811122701 107 29 7.0 8.7 0.00 0.00 0.00 37 993.9
20220811122614 107 52 3.5 8.7 0.00 0.00 0.00 37 993.9
20220811122402 107 57 1.7 8.7 0.00 0.00 0.00 38 993.9
20220811122304 106 47 3.5 8.7 0.00 0.00 0.00 38 993.9
20220811122210 106 65 4.3 8.7 0.00 0.00 0.00 37 993.9
20220811122004 107 59 6.1 8.7 0.00 0.00 0.00 36 994.0
20220811121907 107 86 7.0 8.7 0.00 0.00 0.00 36 993.9
20220811121804 107 61 8.7 8.7 0.00 0.00 0.00 38 994.0
20220811121703 107 51 2.6 8.7 0.00 0.00 0.00 38 994.0
20220811121645 107 53 3.5 8.7 0.00 0.00 0.00 38 994.0
20220811121108 108 24 3.5 6.1 0.00 0.00 0.00 36 993.9
20220811120602 108 31 4.3 7.0 0.00 0.00 0.00 34 993.9
20220811120513 108 39 5.2 7.0 0.00 0.00 0.00 34 993.9
20220811120409 108 34 2.6 7.0 0.00 0.00 0.00 33 993.9
20220811120011 109 30 5.2 7.0 0.00 0.00 0.00 31 993.9
20220811115903 109 38 1.7 7.0 0.00 0.00 0.00 32 993.9
20220811115602 109 28 3.5 7.8 0.00 0.00 0.00 31 993.9
20220811114704 109 44 4.3 6.1 0.00 0.00 0.00 30 993.9
20220811114607 109 26 4.3 6.1 0.00 0.00 0.00 29 993.8
20220811114503 109 65 5.2 6.1 0.00 0.00 0.00 29 993.8
20220811114404 109 53 2.6 6.1 0.00 0.00 0.00 30 993.8
20220811114304 109 15 1.7 7.8 0.00 0.00 0.00 31 993.9
20220811114102 109 53 1.7 7.8 0.00 0.00 0.00 30 993.9
20220811113302 109 53 2.6 7.0 0.00 0.00 0.00 32 993.9
20220811113205 109 26 5.2 7.0 0.00 0.00 0.00 31 993.9
20220811113018 108 68 3.5 7.0 0.00 0.00 0.00 32 993.9
20220811112406 108 26 3.5 4.3 0.00 0.00 0.00 37 993.9
20220811112110 108 55 1.7 5.2 0.00 0.00 0.00 36 994.0
20220811112025 108 65 3.5 5.2 0.00 0.00 0.00 38 994.0
20220811111612 108 24 1.7 7.0 0.00 0.00 0.00 37 994.0
20220811111404 108 43 3.5 7.0 0.00 0.00 0.00 37 994.0
20220811111311 108 65 3.5 7.0 0.00 0.00 0.00 36 994.0
20220811111003 108 5 4.3 7.0 0.00 0.00 0.00 34 994.0
20220811110702 110 360 4.3 7.0 0.00 0.00 0.00 33 994.1
20220811110603 110 355 3.5 4.3 0.00 0.00 0.00 32 994.1
20220811110402 110 346 1.7 4.3 0.00 0.00 0.00 33 994.1
20220811110202 110 346 1.7 4.3 0.00 0.00 0.00 33 994.1
20220811110105 110 340 1.7 4.3 0.00 0.00 0.00 33 994.1
20220811110006 110 339 3.5 4.3 0.00 0.00 0.00 33 994.1
20220811105804 109 350 0.9 4.3 0.00 0.00 0.00 34 994.1
20220811105702 109 350 2.6 4.3 0.00 0.00 0.00 33 994.1
20220811105506 109 355 2.6 4.3 0.00 0.00 0.00 33 994.1
20220811105403 109 355 2.6 4.3 0.00 0.00 0.00 34 994.1
20220811104702 108 347 0.9 5.2 0.00 0.00 0.00 35 994.2
20220811104602 108 345 2.6 5.2 0.00 0.00 0.00 35 994.2
20220811104502 108 327 2.6 5.2 0.00 0.00 0.00 35 994.2
20220811104206 108 321 1.7 5.2 0.00 0.00 0.00 35 994.2
20220811104102 108 319 3.5 5.2 0.00 0.00 0.00 35 994.3
20220811103806 108 331 4.3 5.2 0.00 0.00 0.00 35 994.3
20220811103701 108 336 1.7 5.2 0.00 0.00 0.00 36 994.3
20220811103601 108 325 2.6 5.2 0.00 0.00 0.00 35 994.3
20220811103505 107 323 2.6 5.2 0.00 0.00 0.00 36 994.3
20220811103402 107 319 0.9 5.2 0.00 0.00 0.00 36 994.4
20220811103301 107 317 4.3 5.2 0.00 0.00 0.00 36 994.3
20220811102801 108 321 5.2 5.2 0.00 0.00 0.00 35 994.4
20220811102601 108 327 0.9 5.2 0.00 0.00 0.00 35 994.4
20220811102503 108 334 2.6 5.2 0.00 0.00 0.00 36 994.4
20220811102402 108 336 0.9 7.8 0.00 0.00 0.00 36 994.5
20220811102305 108 340 4.3 7.8 0.00 0.00 0.00 36 994.5
20220811102201 107 345 1.7 7.8 0.00 0.00 0.00 37 994.5
20220811101901 107 329 3.5 7.8 0.00 0.00 0.00 37 994.5
20220811101701 106 327 1.7 7.8 0.00 0.00 0.00 37 994.7
20220811101604 106 312 5.2 7.8 0.00 0.00 0.00 36 994.7
20220811101502 106 312 4.3 7.8 0.00 0.00 0.00 37 994.7
20220811101301 106 319 5.2 7.8 0.00 0.00 0.00 37 994.7
20220811101205 106 321 5.2 7.8 0.00 0.00 0.00 37 994.8
20220811101101 106 326 7.0 7.8 0.00 0.00 0.00 36 994.8
20220811101003 106 323 7.8 7.8 0.00 0.00 0.00 37 994.8
20220811100906 106 344 2.6 7.8 0.00 0.00 0.00 37 994.8
20220811100801 106 338 5.2 7.8 0.00 0.00 0.00 36 994.8
20220811100701 106 312 5.2 7.8 0.00 0.00 0.00 37 994.8
20220811100601 106 318 3.5 7.8 0.00 0.00 0.00 37 994.8
20220811100301 106 318 7.0 7.8 0.00 0.00 0.00 37 994.9
20220811100202 106 338 3.5 7.8 0.00 0.00 0.00 38 995.0
20220811095901 105 316 5.2 7.8 0.00 0.00 0.00 37 994.9
20220811095804 105 319 7.0 7.8 0.00 0.00 0.00 37 995.0
20220811095703 106 324 7.0 7.0 0.00 0.00 0.00 38 995.0
20220811095502 106 312 7.0 7.8 0.00 0.00 0.00 38 995.0
20220811095407 106 312 4.3 7.8 0.00 0.00 0.00 39 995.1
20220811095302 106 333 5.2 8.7 0.00 0.00 0.00 39 995.1
20220811095203 105 313 2.6 8.7 0.00 0.00 0.00 39 995.1
20220811095101 105 304 3.5 8.7 0.00 0.00 0.00 38 995.1
20220811094901 104 326 7.0 8.7 0.00 0.00 0.00 40 995.1
20220811094301 104 339 4.3 7.8 0.00 0.00 0.00 43 995.2
20220811094101 104 332 5.2 7.8 0.00 0.00 0.00 43 995.3
20220811093801 104 323 2.6 7.8 0.00 0.00 0.00 47 995.3
20220811093702 104 330 2.6 7.8 0.00 0.00 0.00 48 995.3
20220811093506 103 344 5.2 7.8 0.00 0.00 0.00 50 995.4
20220811093302 103 344 2.6 8.7 0.00 0.00 0.00 51 995.4
20220811093104 103 332 5.2 8.7 0.00 0.00 0.00 50 995.5
20220811093003 103 326 5.2 11.3 0.00 0.00 0.00 51 995.5
20220811092901 103 323 4.3 11.3 0.00 0.00 0.00 51 995.5
20220811092602 103 350 4.3 11.3 0.00 0.00 0.00 51 995.6
20220811092502 103 355 3.5 11.3 0.00 0.00 0.00 50 995.6
20220811092401 103 337 3.5 11.3 0.00 0.00 0.00 49 995.6
20220811092305 102 355 4.3 11.3 0.00 0.00 0.00 48 995.7
20220811092201 102 338 7.0 11.3 0.00 0.00 0.00 47 995.6
20220811092101 102 342 7.0 11.3 0.00 0.00 0.00 47 995.8
20220811092004 102 355 5.2 11.3 0.00 0.00 0.00 49 995.8
20220811091803 102 298 3.5 8.7 0.00 0.00 0.00 53 995.7
20220811091602 103 315 7.0 9.6 0.00 0.00 0.00 53 995.8
20220811091403 102 327 3.5 9.6 0.00 0.00 0.00 52 995.7
20220811091301 102 323 5.2 10.4 0.00 0.00 0.00 52 995.7
20220811091205 102 313 7.0 10.4 0.00 0.00 0.00 51 995.8
20220811091003 102 350 4.3 10.4 0.00 0.00 0.00 52 995.6
20220811090903 102 317 7.0 10.4 0.00 0.00 0.00 52 995.7
20220811090806 102 318 4.3 10.4 0.00 0.00 0.00 50 995.7
20220811090301 102 317 4.3 11.3 0.00 0.00 0.00 48 995.7
20220811090101 101 317 7.8 11.3 0.00 0.00 0.00 49 995.8
20220811090010 101 327 7.0 11.3 0.00 0.00 0.00 49 995.8
20220811085901 102 318 8.7 11.3 0.00 0.00 0.00 49 995.8
20220811085801 102 311 9.6 11.3 0.00 0.00 0.00 49 995.8
20220811085503 103 321 8.7 10.4 0.00 0.00 0.00 50 995.8
20220811085401 103 308 8.7 10.4 0.00 0.00 0.00 49 995.9
20220811085304 102 312 4.3 10.4 0.00 0.00 0.00 50 995.8
20220811085103 102 355 5.2 11.3 0.00 0.00 0.00 49 995.8
20220811085003 102 334 5.2 11.3 0.00 0.00 0.00 50 995.9
20220811084503 102 342 3.5 12.2 0.00 0.00 0.00 47 995.8
20220811084403 102 334 7.0 12.2 0.00 0.00 0.00 47 995.9
20220811084204 102 339 2.6 12.2 0.00 0.00 0.00 47 995.9
20220811084101 102 338 8.7 12.2 0.00 0.00 0.00 47 996.0
20220811084004 102 341 10.4 11.3 0.00 0.00 0.00 47 995.9
20220811083402 102 336 5.2 11.3 0.00 0.00 0.00 46 996.1
20220811083301 102 347 7.0 13.0 0.00 0.00 0.00 47 996.1
20220811083204 102 355 7.0 14.8 0.00 0.00 0.00 48 996.1
20220811083003 102 331 3.5 14.8 0.00 0.00 0.00 48 996.2
20220811082902 102 314 4.3 14.8 0.00 0.00 0.00 48 996.1
20220811082602 102 311 7.8 14.8 0.00 0.00 0.00 47 996.1
20220811082405 103 314 10.4 14.8 0.00 0.00 0.00 46 996.2
20220811082201 102 327 7.8 13.0 0.00 0.00 0.00 44 996.3
20220811081901 102 340 3.5 14.8 0.00 0.00 0.00 46 996.3
20220811081801 101 320 5.2 14.8 0.00 0.00 0.00 46 996.3
20220811081402 101 338 11.3 14.8 0.00 0.00 0.00 46 996.3
20220811081204 101 309 9.6 14.8 0.00 0.00 0.00 46 996.3
20220811081005 101 315 10.4 14.8 0.00 0.00 0.00 45 996.4
20220811080908 101 343 8.7 14.8 0.00 0.00 0.00 46 996.4
20220811080801 101 317 10.4 13.9 0.00 0.00 0.00 45 996.4
20220811080703 101 323 13.0 13.9 0.00 0.00 0.00 45 996.4
20220811080505 101 323 12.2 13.9 0.00 0.00 0.00 45 996.4
20220811080401 101 325 12.2 13.9 0.00 0.00 0.00 43 996.4
20220811080104 101 329 7.0 13.9 0.00 0.00 0.00 42 996.5
20220811080006 101 330 8.7 13.9 0.00 0.00 0.00 42 996.4
20220811075901 101 319 9.6 13.9 0.00 0.00 0.00 42 996.4
20220811075804 102 306 10.4 13.9 0.00 0.00 0.00 42 996.5
20220811075701 102 299 12.2 13.9 0.00 0.00 0.00 43 996.5
20220811075304 102 304 7.8 13.9 0.00 0.00 0.00 40 996.6
20220811075201 102 328 5.2 13.9 0.00 0.00 0.00 39 996.5
20220811074902 102 314 8.7 15.6 0.00 0.00 0.00 40 996.6
20220811074601 102 313 10.4 15.6 0.00 0.00 0.00 39 996.7
20220811074502 102 320 7.8 15.6 0.00 0.00 0.00 39 996.6
20220811074401 102 327 10.4 15.6 0.00 0.00 0.00 38 996.7
20220811074304 102 311 13.0 15.6 0.00 0.00 0.00 37 996.7
20220811074101 102 317 9.6 14.8 0.00 0.00 0.00 39 996.8
20220811074003 102 320 9.6 14.8 0.00 0.00 0.00 39 996.7
20220811073701 102 317 7.8 14.8 0.00 0.00 0.00 37 996.7
20220811073505 102 331 10.4 14.8 0.00 0.00 0.00 35 996.7
20220811073401 102 319 13.0 14.8 0.00 0.00 0.00 34 996.7
20220811073302 102 331 11.3 14.8 0.00 0.00 0.00 34 996.8
20220811073201 102 334 10.4 14.8 0.00 0.00 0.00 35 996.8
20220811073104 102 324 12.2 14.8 0.00 0.00 0.00 35 996.8
20220811073003 102 318 7.8 14.8 0.00 0.00 0.00 36 996.8
20220811072901 102 325 9.6 13.9 0.00 0.00 0.00 36 996.8
20220811072602 101 323 7.8 13.9 0.00 0.00 0.00 37 996.9
20220811072501 101 316 7.8 13.9 0.00 0.00 0.00 38 996.9
20220811072204 102 330 7.8 15.6 0.00 0.00 0.00 36 996.9
20220811071903 102 323 10.4 16.5 0.00 0.00 0.00 36 997.0
20220811071701 102 327 9.6 16.5 0.00 0.00 0.00 34 997.0
20220811071506 102 328 7.8 16.5 0.00 0.00 0.00 34 997.1
20220811071201 102 325 10.4 16.5 0.00 0.00 0.00 33 997.0
20220811071007 102 311 13.9 19.1 0.00 0.00 0.00 33 997.0
20220811070901 102 315 7.8 19.1 0.00 0.00 0.00 33 997.0
20220811070801 102 325 11.3 19.1 0.00 0.00 0.00 34 997.0
20220811070706 102 315 7.8 19.1 0.00 0.00 0.00 33 997.0
20220811070404 101 309 11.3 19.1 0.00 0.00 0.00 32 997.1
20220811070201 101 298 16.5 18.2 0.00 0.00 0.00 32 997.0
20220811065901 101 333 13.0 15.6 0.00 0.00 0.00 35 997.0
20220811065802 101 331 10.4 15.6 0.00 0.00 0.00 35 997.0
20220811065305 101 327 12.2 17.4 0.00 0.00 0.00 34 997.1
20220811065201 101 321 9.6 17.4 0.00 0.00 0.00 34 997.1
20220811064801 101 322 10.4 16.5 0.00 0.00 0.00 34 997.2
20220811064505 101 297 6.1 17.4 0.00 0.00 0.00 32 997.2
20220811064401 100 313 12.2 17.4 0.00 0.00 0.00 33 997.2
20220811064105 100 318 9.6 17.4 0.00 0.00 0.00 36 997.3
20220811063704 100 321 8.7 17.4 0.00 0.00 0.00 37 997.3
20220811063405 100 323 9.6 17.4 0.00 0.00 0.00 37 997.2
20220811063201 100 333 11.3 16.5 0.00 0.00 0.00 37 997.3
20220811063005 100 328 11.3 19.1 0.00 0.00 0.00 37 997.3
20220811062901 100 340 9.6 19.1 0.00 0.00 0.00 34 997.3
20220811062801 100 283 9.6 19.1 0.00 0.00 0.00 36 997.4
20220811062706 100 319 5.2 19.1 0.00 0.00 0.00 38 997.3
20220811062601 100 333 4.3 19.1 0.00 0.00 0.00 38 997.3
20220811062502 100 304 6.1 19.1 0.00 0.00 0.00 36 997.3
20220811062201 100 304 9.6 19.1 0.00 0.00 0.00 37 997.3
20220811062003 100 336 9.6 15.6 0.00 0.00 0.00 39 997.3
20220811061903 100 323 5.2 15.6 0.00 0.00 0.00 38 997.3
20220811061801 100 355 9.6 15.6 0.00 0.00 0.00 38 997.3
20220811061701 100 308 6.1 16.5 0.00 0.00 0.00 36 997.3
20220811061601 100 336 5.2 16.5 0.00 0.00 0.00 35 997.4
20220811061401 100 331 7.8 16.5 0.00 0.00 0.00 36 997.4
20220811061301 99 311 13.0 19.1 0.00 0.00 0.00 36 997.4
20220811061204 99 329 13.9 19.1 0.00 0.00 0.00 35 997.4
20220811060901 99 324 13.9 19.1 0.00 0.00 0.00 35 997.4
20220811060701 99 306 10.4 19.1 0.00 0.00 0.00 37 997.3
20220811060501 99 294 14.8 19.1 0.00 0.00 0.00 37 997.3
20220811060404 99 319 7.8 16.5 0.00 0.00 0.00 35 997.3
20220811060301 99 318 11.3 16.5 0.00 0.00 0.00 35 997.4
20220811060201 99 355 7.8 15.6 0.00 0.00 0.00 37 997.4
20220811060103 99 331 7.8 15.6 0.00 0.00 0.00 36 997.5
20220811055901 99 345 13.0 15.6 0.00 0.00 0.00 36 997.5
20220811055502 99 325 9.6 15.6 0.00 0.00 0.00 36 997.4
20220811055405 99 313 3.5 15.6 0.00 0.00 0.00 35 997.4
20220811055003 98 315 9.6 15.6 0.00 0.00 0.00 39 997.4
20220811054901 98 339 4.3 15.6 0.00 0.00 0.00 39 997.4
20220811054801 98 323 9.6 15.6 0.00 0.00 0.00 39 997.4
20220811054601 98 323 7.8 15.6 0.00 0.00 0.00 41 997.5
20220811054101 98 329 5.2 16.5 0.00 0.00 0.00 37 997.4
20220811054008 98 318 12.2 16.5 0.00 0.00 0.00 38 997.5
20220811053901 98 349 9.6 16.5 0.00 0.00 0.00 38 997.4
20220811053703 98 323 8.7 16.5 0.00 0.00 0.00 39 997.4
20220811053301 98 302 11.3 13.9 0.00 0.00 0.00 40 997.5
20220811053204 98 294 8.7 14.8 0.00 0.00 0.00 40 997.5
20220811053103 98 294 7.0 14.8 0.00 0.00 0.00 40 997.5
20220811052901 98 346 8.7 14.8 0.00 0.00 0.00 38 997.4
20220811052806 98 298 7.8 14.8 0.00 0.00 0.00 41 997.5
20220811052701 98 338 11.3 14.8 0.00 0.00 0.00 38 997.5
20220811052504 98 344 4.3 14.8 0.00 0.00 0.00 37 997.4
20220811052401 98 306 12.2 14.8 0.00 0.00 0.00 38 997.5
20220811052301 98 312 10.4 14.8 0.00 0.00 0.00 36 997.4
20220811052201 98 325 9.6 14.8 0.00 0.00 0.00 38 997.4
20220811052005 98 322 12.2 13.9 0.00 0.00 0.00 35 997.5
20220811051805 98 298 11.3 13.9 0.00 0.00 0.00 34 997.4
20220811051702 98 304 8.7 13.9 0.00 0.00 0.00 36 997.4
20220811051601 98 323 4.3 11.3 0.00 0.00 0.00 35 997.4
20220811051405 98 336 8.7 11.3 0.00 0.00 0.00 36 997.3
20220811051203 98 312 3.5 11.3 0.00 0.00 0.00 35 997.3
20220811050804 98 360 5.2 11.3 0.00 0.00 0.00 36 997.2
20220811050701 98 355 5.2 11.3 0.00 0.00 0.00 35 997.2
20220811050601 98 284 7.0 13.9 0.00 0.00 0.00 35 997.3
20220811050503 98 304 8.7 13.9 0.00 0.00 0.00 34 997.3
20220811050405 98 293 9.6 13.9 0.00 0.00 0.00 34 997.2
20220811050102 98 324 7.8 13.9 0.00 0.00 0.00 35 997.2
20220811050011 98 325 11.3 13.9 0.00 0.00 0.00 34 997.2
20220811045701 98 332 7.0 13.0 0.00 0.00 0.00 35 997.2
20220811045606 98 319 4.3 13.0 0.00 0.00 0.00 36 997.2
20220811045501 98 335 5.2 13.0 0.00 0.00 0.00 34 997.1
20220811045003 98 268 3.5 12.2 0.00 0.00 0.00 36 997.2
20220811044901 98 321 7.0 13.9 0.00 0.00 0.00 35 997.2
20220811044701 97 338 5.2 13.9 0.00 0.00 0.00 35 997.1
20220811044301 97 293 12.2 13.9 0.00 0.00 0.00 34 997.1
20220811044202 97 307 6.1 13.9 0.00 0.00 0.00 35 997.1
20220811043801 97 313 10.4 12.2 0.00 0.00 0.00 35 997.1
20220811043702 97 328 3.5 12.2 0.00 0.00 0.00 35 997.1
20220811042704 97 348 7.0 15.6 0.00 0.00 0.00 34 997.2
20220811042601 97 287 10.4 15.6 0.00 0.00 0.00 34 997.1
20220811042305 97 302 10.4 15.6 0.00 0.00 0.00 34 997.1
20220811042003 97 332 4.3 13.0 0.00 0.00 0.00 34 997.1
20220811041801 97 296 6.1 13.0 0.00 0.00 0.00 34 997.2
20220811041701 97 257 8.7 14.8 0.00 0.00 0.00 34 997.2
20220811041601 97 292 4.3 14.8 0.00 0.00 0.00 34 997.2
20220811041506 97 302 7.8 14.8 0.00 0.00 0.00 34 997.2
20220811041401 97 299 10.4 14.8 0.00 0.00 0.00 34 997.2
20220811041303 97 336 7.8 14.8 0.00 0.00 0.00 34 997.1
20220811041202 97 309 4.3 14.8 0.00 0.00 0.00 34 997.2
20220811041104 97 306 7.8 14.8 0.00 0.00 0.00 34 997.2
20220811040901 97 309 7.0 14.8 0.00 0.00 0.00 34 997.2
20220811040801 97 298 10.4 13.0 0.00 0.00 0.00 34 997.2
20220811040603 97 271 7.8 13.0 0.00 0.00 0.00 34 997.2
20220811040501 97 313 8.7 13.0 0.00 0.00 0.00 34 997.2
20220811040101 97 290 4.3 15.6 0.00 0.00 0.00 35 997.3
20220811040010 97 299 2.6 15.6 0.00 0.00 0.00 35 997.2
20220811035801 96 299 8.7 15.6 0.00 0.00 0.00 35 997.2
20220811035703 97 330 4.3 15.6 0.00 0.00 0.00 35 997.2
20220811035501 97 307 9.6 15.6 0.00 0.00 0.00 35 997.1
20220811035202 96 315 5.2 14.8 0.00 0.00 0.00 35 997.2
20220811034803 96 296 11.3 16.5 0.00 0.00 0.00 35 997.2
20220811034702 96 297 7.8 16.5 0.00 0.00 0.00 35 997.2
20220811034506 96 302 10.4 16.5 0.00 0.00 0.00 36 997.2
20220811034401 96 298 3.5 16.5 0.00 0.00 0.00 36 997.2
20220811034205 96 295 12.2 16.5 0.00 0.00 0.00 35 997.2
20220811034002 96 255 9.6 16.5 0.00 0.00 0.00 35 997.3
20220811033904 96 284 8.7 12.2 0.00 0.00 0.00 36 997.3
20220811033801 96 304 7.8 12.2 0.00 0.00 0.00 36 997.2
20220811033505 96 272 10.4 12.2 0.00 0.00 0.00 36 997.3
20220811033401 96 315 3.5 12.2 0.00 0.00 0.00 36 997.2
20220811033006 96 314 2.6 10.4 0.00 0.00 0.00 36 997.2
20220811032706 96 326 4.3 12.2 0.00 0.00 0.00 36 997.2
20220811032501 96 284 5.2 12.2 0.00 0.00 0.00 36 997.2
20220811032301 96 306 7.0 12.2 0.00 0.00 0.00 36 997.2
20220811032201 96 311 4.3 12.2 0.00 0.00 0.00 36 997.2
20220811032101 96 317 7.0 12.2 0.00 0.00 0.00 36 997.1
20220811032009 96 302 10.4 12.2 0.00 0.00 0.00 36 997.2
20220811031901 96 306 2.6 10.4 0.00 0.00 0.00 36 997.1
20220811031803 96 322 3.5 10.4 0.00 0.00 0.00 36 997.2
20220811031401 96 286 3.5 13.9 0.00 0.00 0.00 35 997.2
20220811031303 96 303 3.5 13.9 0.00 0.00 0.00 35 997.2
20220811031101 96 296 3.5 13.9 0.00 0.00 0.00 35 997.2
20220811031006 96 284 6.1 13.9 0.00 0.00 0.00 35 997.1
20220811030801 96 304 1.7 13.0 0.00 0.00 0.00 35 997.1
20220811030502 96 313 7.0 13.0 0.00 0.00 0.00 35 997.1
20220811030301 96 295 7.8 13.0 0.00 0.00 0.00 34 997.0
20220811025904 96 281 9.6 13.9 0.00 0.00 0.00 34 997.0
20220811025605 96 304 10.4 16.5 0.00 0.00 0.00 35 997.0
20220811025504 96 315 5.2 16.5 0.00 0.00 0.00 34 997.0
20220811025104 96 311 4.3 16.5 0.00 0.00 0.00 34 996.9
20220811024803 96 308 6.1 13.9 0.00 0.00 0.00 34 997.0
20220811024704 96 298 3.5 13.9 0.00 0.00 0.00 34 997.0
20220811024402 96 327 3.5 13.9 0.00 0.00 0.00 34 996.9
20220811024104 96 331 7.0 12.2 0.00 0.00 0.00 34 996.9
20220811024008 96 306 7.8 12.2 0.00 0.00 0.00 34 996.9
20220811023901 96 314 4.3 12.2 0.00 0.00 0.00 34 996.9
20220811023502 96 306 4.3 12.2 0.00 0.00 0.00 34 996.9
20220811023201 96 267 7.8 13.9 0.00 0.00 0.00 35 996.8
20220811023105 96 305 12.2 13.9 0.00 0.00 0.00 35 996.8
20220811022904 96 334 5.2 13.9 0.00 0.00 0.00 35 996.8
20220811022701 96 324 5.2 13.9 0.00 0.00 0.00 34 996.7
20220811022601 96 286 7.8 13.9 0.00 0.00 0.00 35 996.7
20220811022401 96 306 8.7 13.0 0.00 0.00 0.00 35 996.7
20220811022304 96 299 4.3 13.0 0.00 0.00 0.00 35 996.7
20220811022202 96 326 7.0 13.0 0.00 0.00 0.00 34 996.8
20220811021801 97 254 9.6 15.6 0.00 0.00 0.00 35 996.6
20220811021703 97 313 7.0 15.6 0.00 0.00 0.00 34 996.6
20220811021501 97 319 5.2 15.6 0.00 0.00 0.00 34 996.7
20220811021101 97 300 4.3 14.8 0.00 0.00 0.00 34 996.7
20220811021012 97 306 7.8 14.8 0.00 0.00 0.00 35 996.6
20220811020901 97 310 7.0 13.9 0.00 0.00 0.00 35 996.6
20220811020405 97 308 7.8 13.0 0.00 0.00 0.00 35 996.8
20220811020301 97 320 8.7 13.0 0.00 0.00 0.00 35 996.7
20220811020201 97 294 6.1 13.0 0.00 0.00 0.00 34 996.7
20220811020009 97 336 7.8 13.0 0.00 0.00 0.00 35 996.6
20220811015901 97 302 7.8 13.0 0.00 0.00 0.00 36 996.7
20220811015801 97 289 11.3 13.0 0.00 0.00 0.00 36 996.7
20220811015302 97 303 3.5 14.8 0.00 0.00 0.00 36 996.6
20220811015205 97 327 7.0 14.8 0.00 0.00 0.00 36 996.6
20220811015103 97 350 1.7 14.8 0.00 0.00 0.00 35 996.6
20220811015003 97 319 7.8 14.8 0.00 0.00 0.00 35 996.6
20220811014701 97 319 8.7 17.4 0.00 0.00 0.00 36 996.6
20220811014601 97 333 12.2 17.4 0.00 0.00 0.00 37 996.6
20220811014404 97 296 7.8 17.4 0.00 0.00 0.00 36 996.5
20220811014007 97 300 7.8 16.5 0.00 0.00 0.00 39 996.5
20220811013901 97 323 8.7 16.5 0.00 0.00 0.00 38 996.5
20220811013403 97 297 7.8 14.8 0.00 0.00 0.00 38 996.6
20220811013104 97 312 5.2 19.1 0.00 0.00 0.00 39 996.6
20220811012803 97 292 10.4 19.1 0.00 0.00 0.00 38 996.5
20220811012305 97 309 13.9 19.1 0.00 0.00 0.00 38 996.6
20220811012101 97 316 12.2 17.4 0.00 0.00 0.00 39 996.6
20220811011802 97 350 13.9 18.2 0.00 0.00 0.00 39 996.6
20220811011701 97 294 7.8 18.2 0.00 0.00 0.00 40 996.6
20220811011600 97 326 12.2 18.2 0.00 0.00 0.00 37 996.7
20220811011505 97 287 7.8 18.2 0.00 0.00 0.00 39 996.6
20220811011401 97 347 12.2 18.2 0.00 0.00 0.00 39 996.6
20220811011201 97 342 12.2 17.4 0.00 0.00 0.00 38 996.6
20220811011104 97 341 8.7 17.4 0.00 0.00 0.00 39 996.5
20220811010601 97 360 7.8 17.4 0.00 0.00 0.00 40 996.5
20220811010504 97 306 13.0 17.4 0.00 0.00 0.00 40 996.4
20220811010304 97 345 13.0 15.6 0.00 0.00 0.00 41 996.4
20220811010201 97 302 10.4 15.6 0.00 0.00 0.00 40 996.4
20220811010007 97 340 10.4 18.2 0.00 0.00 0.00 38 996.4
20220811005700 97 308 7.8 18.2 0.00 0.00 0.00 40 996.3
20220811005603 97 321 9.6 18.2 0.00 0.00 0.00 40 996.5
20220811005501 97 304 12.2 18.2 0.00 0.00 0.00 40 996.4
20220811005401 97 323 12.2 18.2 0.00 0.00 0.00 39 996.4
20220811005100 98 329 5.2 16.5 0.00 0.00 0.00 40 996.4
20220811004900 98 327 7.8 16.5 0.00 0.00 0.00 40 996.4
20220811004803 98 328 5.2 16.5 0.00 0.00 0.00 39 996.3
20220811004600 98 302 4.3 16.5 0.00 0.00 0.00 39 996.4
20220811004501 98 340 5.2 16.5 0.00 0.00 0.00 37 996.3
20220811004404 98 338 7.0 16.5 0.00 0.00 0.00 38 996.4
20220811004200 98 347 10.4 16.5 0.00 0.00 0.00 39 996.4
20220811003801 98 323 11.3 16.5 0.00 0.00 0.00 39 996.5
20220811003504 98 306 12.2 14.8 0.00 0.00 0.00 39 996.4
20220811003400 98 338 9.6 14.8 0.00 0.00 0.00 39 996.4
20220811003301 98 292 6.1 14.8 0.00 0.00 0.00 39 996.4
20220811003200 98 17 9.6 17.4 0.00 0.00 0.00 39 996.4
20220811003103 98 250 8.7 17.4 0.00 0.00 0.00 39 996.4
20220811002800 98 334 10.4 17.4 0.00 0.00 0.00 40 996.4
20220811002703 98 326 11.3 17.4 0.00 0.00 0.00 39 996.4
20220811002500 98 294 9.6 17.4 0.00 0.00 0.00 39 996.4
20220811001900 98 333 7.8 14.8 0.00 0.00 0.00 38 996.3
20220811001800 98 331 13.9 15.6 0.00 0.00 0.00 39 996.2
20220811001603 98 297 8.7 15.6 0.00 0.00 0.00 37 996.2
20220811001400 98 323 4.3 15.6 0.00 0.00 0.00 38 996.2
20220811001002 98 311 10.4 15.6 0.00 0.00 0.00 38 996.2
20220811000805 99 321 4.3 15.6 0.00 0.00 0.00 39 996.2
20220811000504 99 306 4.3 15.6 0.00 0.00 0.00 37 996.1
20220811000401 99 313 12.2 15.6 0.00 0.00 0.00 37 996.1
20220811000300 99 319 7.0 15.6 0.00 0.00 0.00 37 996.1
20220811000200 99 329 7.8 15.6 0.00 0.00 0.00 37 996.2
20220811000104 99 328 4.3 15.6 0.00 0.00 0.00 36 996.0
20220811000007 99 311 7.8 15.6 0.00 0.00 0.00 38 996.1
20220810235801 99 300 4.3 13.0 0.00 0.00 0.00 37 996.1
20220810235702 99 316 11.3 13.0 0.00 0.00 0.00 38 996.1
20220810235501 99 313 5.2 13.9 0.00 0.00 0.00 37 996.1
20220810235305 99 323 10.4 13.9 0.00 0.00 0.00 37 996.2
20220810235001 99 266 7.8 14.8 0.00 0.00 0.00 36 996.2
20220810234800 99 288 2.6 14.8 0.00 0.00 0.00 37 996.2
20220810234505 100 323 7.0 14.8 0.00 0.00 0.00 36 996.1
20220810234401 100 333 8.7 14.8 0.00 0.00 0.00 35 996.1
20220810234100 100 327 9.6 14.8 0.00 0.00 0.00 35 996.1
20220810233901 100 317 8.7 15.6 0.00 0.00 0.00 35 996.1
20220810233403 100 323 4.3 17.4 0.00 0.00 0.00 36 996.1
20220810233300 100 324 9.6 17.4 0.00 0.00 0.00 37 996.1
20220810233200 100 26 4.3 17.4 0.00 0.00 0.00 38 996.1
20220810232900 100 312 9.6 17.4 0.00 0.00 0.00 36 995.9
20220810232604 100 305 12.2 16.5 0.00 0.00 0.00 36 996.0
20220810232300 100 325 8.7 16.5 0.00 0.00 0.00 35 996.2